Location: Northcutt
(34.7304°N, 84.4305°W)
Time: 18:50:44
(UTC+00:00)

Transit 2A Rocket - Pass Details

Date: 11 October 2022
Orbit: 589 x 911 km, 66.7° (Epoch: 03 December)

Event Time Altitude Azimuth Distance (km) Brightness Sun altitude
Rises 16:48:29 0° 355° (N) 3,052 7.7 47.2°
Reaches altitude 10° 16:52:13 10° 25° (NNE) 2,211 7.2 47.4°
Maximum altitude 16:54:21 13° 50° (NE) 2,083 7.2 47.5°
Drops below altitude 10° 16:56:33 10° 75° (ENE) 2,300 7.6 47.6°
Sets 17:00:36 0° 104° (ESE) 3,309 8.5 47.7°
